Location: U-46 Planetarium
(42.0300°N, 88.2740°W)
Time: 01:51:19
(UTC-06:00)

Cosmos 468 - Pass Details

Date: 16 December 2017
Orbit: 762 x 784 km, 74.0° (Epoch: 21 January)

Event Time Altitude Azimuth Distance (km) Brightness Sun altitude
Rises 17:24:47 0° 340° (NNW) 3,279 7.8 -11.1°
Reaches altitude 10° 17:27:12 10° 341° (NNW) 2,345 7.0 -11.6°
Maximum altitude 17:32:32 86° 70° (ENE) 787 4.5 -12.5°
Drops below altitude 10° 17:37:49 10° 160° (SSE) 2,317 7.0 -13.4°
Sets 17:40:11 0° 161° (SSE) 3,237 7.8 -13.8°
